Location: *
(48.4333°N, 5.0333°W)
Time: 11:21:14
(UTC+00:00)

Cosmos 2058 Rocket - Pass Details

Date: 09 April 2020
Orbit: 610 x 639 km, 82.5° (Epoch: 06 June)

Event Time Altitude Azimuth Distance (km) Brightness Sun altitude
Rises 20:30:27 0° 195° (SSW) 2,931 6.4 -14.3°
Reaches altitude 10° 20:32:42 10° 198° (SSW) 2,027 5.6 -14.6°
Maximum altitude 20:37:11 67° 281° (W) 695 3.5 -15.2°
Drops below altitude 10° 20:41:42 10° 5° (N) 2,036 6.1 -15.9°
Sets 20:43:58 0° 8° (N) 2,946 6.9 -16.2°
